Volver al catálogo

STARLINK-2326

ActivoComunicacionesVLEO
NORAD 47870·PAYLOAD·🇺🇸 United States

Lanzado Mar 14, 2021 desde Cape Canaveral Space Force Station

Loading…

Próximos Pases (próximas 24 horas)

TLE

ActualizadoSource: CelesTrak SupGP

Época: Sep 15, 2026, 01:29 UTC

1 47870C 21021L   26258.06229167  .00050627  00000+0  16279-2 0  2582
2 47870  53.1586 119.6865 0001423  80.8401 222.1893 15.31679075    15

Sigue STARLINK-2326 en tiempo real con AllMySat

Download on the App Store